Regional Weather Roundup
Issued by NWS Green Bay, WI

Home | Current Version | Previous Version | Graphics & Text | Print | Product List | Glossary Off
Versions: 1 2 3 4 5 6 7 8 9 10 11 12 13 14 15 16 17 18 19 20 21 22 23 24 25 26 27 28 29 30 31 32 33 34 35 36 37 38 39 40 41 42 43 44 45 46 47 48 49 50

896
ASUS43 KGRB 230911
RWRGRB

NORTH-CENTRAL AND NORTHEAST WISCONSIN REGIONAL WEATHER ROUNDUP
NATIONAL WEATHER SERVICE GREEN BAY WI
300 AM CST THU FEB 23 2017

WIZ005-009-010>012-018-019-231000-
NORTH CENTRAL WISCONSIN

CITY           SKY/WX    TMP DP  RH WIND       PRES   REMARKS
IRONWOOD       MIX PCPN  31  30  96 N3        29.79R
MANITOWISH WTR CLOUDY    31  31 100 N9        29.75R
ARBOR VITAE    CLOUDY    33  31  93 N14G21      N/A
EAGLE RIVER    CLOUDY    32  31  97 N10       29.70R
LAND O LAKES   LGT SNOW  31  30  94 N9        29.72R
RHINELANDER    CLOUDY    34  32  92 N9        29.70R
PHILLIPS       CLOUDY    32  31  98 N5        29.75R
ANTIGO         CLOUDY    35  32  90 N13       29.68R
TOMAHAWK       CLOUDY    33  31  94 N7        29.73R
MERRILL        NOT AVBL
$$

WIZ013-073-231000-
NORTHEAST WISCONSIN

CITY           SKY/WX    TMP DP  RH WIND       PRES   REMARKS
IRON MOUNTAIN  FLURRIES  34  30  85 N13       29.65R
MARINETTE      MOCLDY    39  34  82 N10G20    29.64R
OCONTO         CLOUDY    39  36  86 N8G17     29.63R
$$

WIZ017-030-035>037-045-231000-
CENTRAL WISCONSIN

CITY           SKY/WX    TMP DP  RH WIND       PRES   REMARKS
MEDFORD        CLOUDY    34  31  88 N12       29.73R
WAUSAU         CLOUDY    37  33  85 N14       29.68R
MOSINEE        CLOUDY    36  36 100 NW16      29.70R
MARSHFIELD     CLOUDY    38  34  85 NW18      29.70R
WISC RAPIDS    CLOUDY    41  38  89 NW13G25   29.70R
STEVENS POINT  DRIZZLE   39  39 100 NW8       29.68R
WAUPACA        CLOUDY    45  40  85 W13G21    29.66R
SHAWANO        CLOUDY    38  37  93 CALM      29.65R FOG
CLINTONVILLE   MOCLDY    36  34  93 NW3       29.65R
WAUTOMA        MOCLDY    45  40  82 NW18G24   29.67R
$$

WIZ038-039-048-051-231000-
FOX VALLEY

CITY           SKY/WX    TMP DP  RH WIND       PRES   REMARKS
NWS GREEN BAY  CLOUDY    38  38 100 VRB6      29.64R FOG
APPLETON       PTCLDY    36  34  93 W9        29.61R
OSHKOSH        PTCLDY    44  39  82 W10       29.63R
FOND DU LAC    MOCLDY    47  40  76 W16G31    29.65R
$$

WIZ022-050-052-231000-
EAST CENTRAL WISCONSIN

CITY           SKY/WX    TMP DP  RH WIND       PRES   REMARKS
EPHRAIM        CLOUDY    37  36  96 N13G18    29.61R
WASHINGTON ISL CLOUDY    35  33  93 N14G20    29.61R
STURGEON BAY   CLOUDY    37  35  92 N10       29.64R
MANITOWOC      FOG       39  37  93 N6        29.63R VSB 1
SHEBOYGAN      PTCLDY    47  39  74 W10G20    29.62R
$$

LMZ563-521-522-541>543-231000-
LAKESHORE

STATION/POSITION TIME  TEMP    WIND        PRES    VSBY  WAVE
                       AIR SEA DIR/SP/G                  HT/PER
                 (UTC) (F)     (DEG/KT/KT) (MB)    (MI)  (FT/S)
SHEBOYGAN LKSHOR 0900   50     270/ 14/ 17 1002.7R
KEWAUNEE LKSHORE 0848   39     360/  2/  5 1002.8R
NORTHPORT PIER   0840   35     300/  9/ 15 1003.0R
SISTER BAY LKSHO 0835   34     320/ 11/ 12   N/A
CHAMBERS ISLAND  0840   36     320/ 14/ 16 1002.7R
MENOMINEE LKSHOR 0848   39     320/ 17/ 19 1002.3R
$$




USA.gov is the U.S. government's official web portal to all federal, state and local government web resources and services.